Regional Weather Roundup
Issued by NWS

Home | Current Version | Previous Version | Graphics & Text | Print | Product List | Glossary On
Versions: 1 2 3 4 5 6 7 8 9 10 11 12 13 14 15 16 17 18 19 20 21 22 23 24 25 26 27 28 29 30 31 32 33 34 35 36 37 38 39 40 41 42 43 44 45 46 47 48
000
ASUS45 KBOI 270110
RWRID

IDAHO REGIONAL WEATHER ROUNDUP
NATIONAL WEATHER SERVICE BOISE ID
700 PM MDT TUE MAY 26 2015

NOTE: "FAIR" INDICATES FEW OR NO CLOUDS BELOW 12000 FEET
WITH NO SIGNIFICANT WEATHER AND/OR OBSTRUCTIONS TO VISIBILITY

IDZ012-014-270200-
SOUTHWEST IDAHO


CITY           SKY/WX    TMP DP  RH WIND       PRES   REMARKS
BOISE          SUNNY     76  41  28 SW9       29.86F
CALDWELL       SUNNY     77  41  27 S7        29.86S
MOUNTAIN HOME  PTSUNNY   74  39  28 VRB5      29.88F
$$

IDZ016-017-270200-
SOUTHCENTRAL IDAHO


CITY           SKY/WX    TMP DP  RH WIND       PRES   REMARKS
JEROME         PTSUNNY   67  40  37 SW12      29.94F
TWIN FALLS     NOT AVBL
$$

IDZ019>023-270200-
SOUTHEAST IDAHO


CITY           SKY/WX    TMP DP  RH WIND       PRES   REMARKS
IDAHO FALLS    CLOUDY    54  46  74 NE14      30.02R
POCATELLO      MOSUNNY   65  44  46 S16       29.96S
REXBURG        LGT RAIN  49  45  86 E10G17    30.02S
$$

IDZ006-010-011-018-031-032-270200-
CENTRAL IDAHO MOUNTAINS


CITY           SKY/WX    TMP DP  RH WIND       PRES   REMARKS
MCCALL         PTSUNNY   63  33  32 W8        29.93S
HAILEY         PTSUNNY   63  39  42 W5        29.98F
STANLEY          N/A     57  31  37 W5        30.01F
SALMON         PTSUNNY   66  36  32 CALM      29.88F
CHALLIS        PTSUNNY   66  36  32 E9        29.90R
$$

IDZ002-004-006-007-026-270200-
NORTHERN IDAHO


CITY           SKY/WX    TMP DP  RH WIND       PRES   REMARKS
LEWISTON       PTSUNNY   66  49  54 W10       29.93R
LOWELL           N/A     64  49  57 CALM      29.91F
COEUR D`ALENE  PTSUNNY   64  46  52 N7        29.94F
MULLAN PASS    MOSUNNY   48  39  71 CALM      30.03F
$$


USA.gov is the U.S. government's official web portal to all federal, state and local government web resources and services.